User: anonymous   Login
Location: La Comballaz
(46.3780°N, 7.0817°E)
Time: 04:35:11
(UTC+00:00)
Language:

NOAA 16 DEB - Orbit

View from above orbital plane
View from above orbital plane
View from above satellite
View from above satellite

Ground track
Ground track

The orbit data is extracted from the following two-line orbital elements,

1 41201U 00055DE  21289.60847719  .00000500  00000-0  34492-3 0  9992
2 41201  98.8621 343.0216 0048679  85.5599 275.1127 14.03124940300228
Epoch (UTC): 16 October 2021 14:36:12
Eccentricity: 0.0048679
inclination: 98.8621°
perigee height: 847 km
apogee height: 918 km
right ascension of ascending node: 343.0216°
argument of perigee: 85.5599°
revolutions per day: 14.03124940
mean anomaly at epoch: 275.1127°
orbit number at epoch: 30022

The dashed part of the orbit path shows where the satellite is in the earth's shadow,  

DLR